TimeEST,TemperatureF,Dew PointF,Humidity,Sea Level PressureIn,VisibilityMPH,Wind Direction,Wind SpeedMPH,Gust SpeedMPH,PrecipitationIn,Events,Conditions,WindDirDegrees,DateUTC
12:53 AM,30.0,21.0,69,30.22,10.0,North,8.1,-,N/A,,Mostly Cloudy,10,2011-12-20 05:53:00
1:53 AM,30.0,21.9,72,30.22,10.0,NNE,5.8,-,N/A,,Overcast,30,2011-12-20 06:53:00
2:53 AM,28.0,21.0,75,30.25,10.0,North,5.8,-,N/A,,Mostly Cloudy,360,2011-12-20 07:53:00
3:51 AM,30.2,21.2,69,30.24,10.0,North,6.9,-,N/A,,Overcast,10,2011-12-20 08:51:00
3:53 AM,30.0,21.0,69,30.26,10.0,North,5.8,-,N/A,,Overcast,10,2011-12-20 08:53:00
4:53 AM,30.0,21.0,69,30.25,10.0,NNE,5.8,-,N/A,,Overcast,20,2011-12-20 09:53:00
5:53 AM,28.9,21.0,72,30.25,10.0,NNE,6.9,-,N/A,,Overcast,30,2011-12-20 10:53:00
6:53 AM,28.9,21.9,75,30.25,10.0,NE,5.8,-,N/A,,Overcast,50,2011-12-20 11:53:00
7:53 AM,30.0,21.0,69,30.25,10.0,East,4.6,-,N/A,,Overcast,90,2011-12-20 12:53:00
8:53 AM,30.0,21.0,69,30.24,10.0,East,6.9,-,N/A,,Overcast,100,2011-12-20 13:53:00
9:53 AM,30.9,19.9,64,30.22,10.0,ESE,9.2,-,N/A,,Partly Cloudy,120,2011-12-20 14:53:00
10:53 AM,30.9,21.0,67,30.22,10.0,East,8.1,-,N/A,,Mostly Cloudy,100,2011-12-20 15:53:00
11:11 AM,32.0,21.2,64,30.18,10.0,SE,6.9,-,N/A,,Scattered Clouds,130,2011-12-20 16:11:00
11:53 AM,32.0,21.0,64,30.18,10.0,South,5.8,-,N/A,,Overcast,170,2011-12-20 16:53:00
12:53 PM,33.1,21.0,61,30.13,10.0,SE,8.1,-,N/A,,Overcast,140,2011-12-20 17:53:00
1:53 PM,33.1,21.9,64,30.09,10.0,South,4.6,-,N/A,,Overcast,170,2011-12-20 18:53:00
2:53 PM,34.0,23.0,64,30.06,10.0,SSE,4.6,-,N/A,,Overcast,160,2011-12-20 19:53:00
3:53 PM,34.0,24.1,67,30.05,10.0,South,5.8,-,N/A,,Overcast,180,2011-12-20 20:53:00
4:53 PM,35.1,25.0,67,30.04,10.0,South,5.8,-,N/A,,Overcast,190,2011-12-20 21:53:00
5:53 PM,34.0,26.1,73,30.02,10.0,Calm,Calm,-,N/A,,Overcast,0,2011-12-20 22:53:00
6:53 PM,34.0,26.1,73,30.02,10.0,South,3.5,-,N/A,,Overcast,190,2011-12-20 23:53:00
7:53 PM,34.0,27.0,75,29.99,10.0,SSE,3.5,-,N/A,,Overcast,160,2011-12-21 00:53:00
8:53 PM,34.0,28.0,79,29.96,10.0,Calm,Calm,-,N/A,,Overcast,0,2011-12-21 01:53:00
9:53 PM,34.0,28.0,79,29.92,10.0,South,4.6,-,N/A,,Overcast,170,2011-12-21 02:53:00
10:50 PM,33.8,28.4,81,29.89,10.0,Calm,Calm,-,N/A,,Overcast,0,2011-12-21 03:50:00
10:53 PM,34.0,28.9,82,29.92,10.0,South,4.6,-,N/A,,Overcast,180,2011-12-21 03:53:00
11:53 PM,35.1,28.9,78,29.90,10.0,South,3.5,-,N/A,,Overcast,190,2011-12-21 04:53:00